ONEWEB-0690, 61598

Orbit data source: Space-Track

ONEWEB-0690, 61598 is a payload satellite owned by Eut. One Web (UK) in LEO that was launched on Sun, 20 Oct 2024 UTC via an FALCON 9 launch vehicle from the Air Force Western Test Range (AFWTR). Payload-class satellites include a variety of spacecraft equipped with specific instruments for various scientific and technological missions. These include communications satellites like Starlink; space stations such as the ISS; scientific satellites like the Hubble; Earth observation satellites from companies like Planet Labs, Umbra, and HawkEye 360; GPS; miniature CubeSats for education and research; and military/defense satellites.

Loading next visibility...
Identifier
61598, 2024-188E
Orbit
LEO
Country
Flag of UKUK
Related business
Manufacturer
One Web
Mission
Operational Commercial Communications
Bus & Motor
ARROW, Unknown motor
Mass
148 kg wet, ~140 kg dry
Launch date (UTC)
2024-10-20 (11 months ago)
Launch vehicle
FALCON 9
Launch site
Air Force Western Test Range (AFWTR)
Object type
Payload
Rocket body
Debris
Shape & HBR
Trap Box + 2 Pan, 2.5 m
Radar Cross Section
2.032 m², Large (>1 m²)

Expand to show TLE details & history
Last TLE update: 1 day ago

TLE from 1 day ago
0 ONEWEB-0690
1 61598U 24188E   25259.98219984 -.00000502  00000-0 -14524-2 0  9992
2 61598  87.8791  75.4644 0001131  70.1323 289.9926 13.11418147 48821
Epoch: 2025-09-16T23:34Z
TLE epoch observation values (Epoch: 2025-09-16T23:34:22.066Z)
Latitude
-0.00008°
Longitude
85.70776°
Altitude
1,220.273 km
Speed
7.244 km/s
True Right ascension
05h 01m 51s
True Declination
0° 00' 00"
Sunlit
Object was in daylight at epoch
Visualization orbit readout
Latitude
Unknown
Longitude
Unknown
Altitude
Unknown
Speed
Unknown
Apparent Right ascension
Unknown
Apparent Declination
Unknown
Sunlit
N/A
Visualization observer readout
Local Sidereal Time
16:05:54
Azimuth
Unknown
Elevation
Unknown
Doppler factor
Unknown
Orbital elements
Apogee altitude
1,215.655 km
Perigee altitude
1,213.938 km
Semi-major axis
7,592.933 km
Eccentricity
0.00011
Inclination
87.8791°
RAAN
75.4644°
Arg. of periapsis
70.1323°
True anomaly
289.98042°
Mean anomaly
289.9926°
Eccentric anomaly
289.98651°
Mean motion
3.28041 °/min
Orbital period
109.74 mins
BSTAR
-0.0014524
Loading maneuver chart data...
Computing Atmospheric mass density...
Loading historical data...
Loading historical data...
Loading historical data...
Loading historical data...
Loading historical data...
Loading historical data...
Loading historical data...

Documentation

Showing up to 5 results
|